Wind_Speed
29 30 30 31 31 32 31 30 29 29 30 28 25 23 24 26 27 29 30 29 27 26 26 25 24 22 22 24 27 29 30 29 27 28 30 32 34 34 33 34 33 31 29 26 26 27 27 27 28 29 31 34 34 33 33 32 31 31 31 33 32 30 27 24 22 27 32 29 24 21 21 22 24 24 24 24 26 27 27 26 26 26 25 25 24 22 22
29 29 30 30 30 30 30 30 29 28 29 29 28 24 23 25 27 28 29 29 28 26 26 26 25 22 21 23 26 28 30 31 30 31 33 35 37 36 34 34 34 34 33 31 31 30 27 26 29 30 29 29 30 31 33 34 34 34 33 33 33 31 29 27 23 24 31 33 28 24 24 25 26 26 26 26 27 27 27 27 27 27 26 25 25 24 23
29 29 29 28 28 28 28 28 28 27 26 27 28 26 24 24 25 27 27 27 27 25 26 29 29 27 25 25 26 29 32 33 32 34 36 38 40 40 37 36 36 35 34 34 34 34 31 28 31 34 32 29 28 27 28 30 33 36 36 35 34 33 32 32 29 26 29 32 32 29 29 29 28 28 29 29 30 29 29 30 29 29 28 28 28 28 28
29 29 28 27 26 26 26 26 26 26 24 23 25 26 25 24 25 26 26 27 28 27 28 30 30 29 28 27 27 30 32 34 35 36 38 40 41 41 40 40 39 37 35 34 35 37 38 35 34 36 36 34 32 29 26 25 27 32 35 35 34 34 34 34 33 30 30 32 32 31 30 29 30 31 32 33 33 32 32 32 32 31 31 30 31 30 30
28 28 27 26 26 25 25 25 25 25 24 20 21 23 25 24 24 25 26 27 28 29 31 31 31 29 28 27 28 30 31 33 34 37 40 41 41 42 41 41 40 38 35 34 35 38 40 39 37 36 37 37 36 35 32 28 25 26 30 33 34 35 36 35 33 31 31 32 32 31 30 29 29 30 33 34 34 34 34 35 35 33 32 32 32 31 31
27 27 26 26 25 25 24 24 23 24 24 20 17 19 23 24 24 25 26 27 28 29 29 30 31 30 29 29 29 29 29 31 33 36 39 40 40 40 40 39 40 40 38 36 34 36 38 38 37 37 38 39 38 38 38 35 32 29 28 29 30 32 33 33 31 30 30 29 29 29 29 28 28 28 31 33 34 35 36 36 36 34 33 33 34 34 35
26 27 26 25 25 24 24 23 22 22 23 21 14 15 19 23 24 23 24 27 28 28 28 28 29 29 29 31 30 28 29 31 32 35 37 38 38 38 37 37 38 39 41 39 36 35 35 36 35 36 37 39 38 38 39 38 37 36 34 32 31 31 31 31 31 31 31 31 31 31 30 30 31 32 33 34 34 35 36 36 36 35 35 35 36 37 38
27 27 27 26 25 24 23 22 22 22 22 20 14 10 15 20 24 24 24 25 25 26 27 27 28 28 29 29 30 30 30 30 31 32 34 35 36 36 36 37 37 37 38 39 38 36 35 35 35 35 35 36 37 37 38 37 37 37 37 36 34 33 33 34 34 34 34 34 35 34 34 33 34 35 35 35 36 36 37 37 37 37 38 39 40 40 41
27 27 27 27 25 24 23 22 21 21 21 20 15 9 10 16 21 24 25 24 24 25 25 24 25 27 29 29 30 31 31 31 30 31 33 34 35 36 36 36 37 37 36 35 35 35 35 35 35 34 35 35 36 36 37 37 37 37 37 36 35 34 34 34 34 34 34 34 33 33 33 34 35 35 35 36 38 38 39 39 40 41 42 42 42 42 43
26 27 27 27 26 24 23 21 21 21 20 20 17 10 6 11 16 20 23 24 24 26 27 25 25 26 28 28 29 30 30 31 30 30 32 34 35 36 36 35 35 35 34 34 35 35 35 36 35 34 35 35 35 35 37 38 39 39 40 39 38 37 36 36 36 37 37 37 37 36 36 36 37 37 36 38 39 40 40 41 42 43 44 43 43 43 44
26 26 27 27 27 25 23 21 20 20 19 19 18 13 8 6 10 15 19 21 23 25 27 28 27 27 26 25 27 29 29 29 29 29 30 32 34 35 36 35 35 33 32 32 33 34 34 35 35 34 33 33 32 33 35 37 39 39 40 40 40 41 40 40 41 41 40 40 40 40 41 41 41 41 41 41 42 41 42 42 43 44 44 44 44 44 44
25 26 26 27 27 26 24 22 20 19 18 17 16 15 11 6 5 9 14 18 20 22 24 26 27 28 28 27 27 29 30 29 30 30 30 31 33 34 34 35 35 35 34 33 33 33 34 35 35 34 33 32 32 31 32 34 35 37 38 39 39 40 40 41 43 43 43 43 43 43 44 44 43 43 43 44 44 43 43 43 44 44 45 45 46 45 45
25 25 26 27 27 27 25 23 21 20 18 17 15 14 13 10 5 4 8 13 16 19 21 23 25 26 28 28 28 29 30 30 31 31 32 33 34 34 34 34 35 36 36 36 35 36 36 37 37 37 36 35 34 34 33 34 35 36 37 39 40 40 40 41 42 42 43 44 45 44 45 44 43 43 44 44 44 44 44 44 45 46 46 47 47 48 48
24 25 25 26 27 27 26 24 22 20 19 17 15 13 13 11 9 5 3 7 11 15 18 20 22 23 24 25 26 27 28 29 30 30 31 32 33 34 35 36 36 36 36 36 36 36 37 37 37 37 37 36 36 36 36 37 37 38 39 40 41 41 41 42 42 42 43 44 45 45 46 46 46 45 44 44 43 43 44 44 46 47 47 48 48 49 50
23 24 24 25 26 27 27 26 23 21 20 18 16 15 14 12 11 8 5 3 6 10 14 16 18 20 22 23 24 25 26 28 29 29 30 31 31 32 35 36 36 36 36 36 36 37 38 38 39 38 38 37 36 37 37 37 39 41 42 42 41 42 43 43 44 45 46 46 46 47 48 48 47 46 44 43 42 42 43 44 45 47 47 48 48 49 49
23 23 24 24 25 26 27 26 24 22 20 19 18 17 16 14 12 10 7 4 4 6 8 10 13 16 18 20 22 23 25 27 28 29 30 30 30 32 33 34 34 34 35 36 36 36 37 38 40 40 40 40 40 39 39 39 40 43 44 43 43 43 44 44 45 46 47 46 46 47 48 47 46 45 44 44 43 43 43 43 44 46 46 46 47 48 48
22 23 23 23 24 25 26 26 26 24 22 20 19 19 18 16 13 10 8 7 5 4 4 6 8 10 13 15 18 20 23 25 27 29 30 30 31 32 33 33 34 34 35 35 36 35 36 36 38 38 40 41 42 42 42 42 42 43 44 44 45 45 44 44 45 46 47 47 47 47 48 48 48 47 46 45 44 44 44 44 46 46 46 47 48 49 49
23 23 23 23 23 24 25 25 26 25 23 21 19 18 18 16 14 12 10 9 8 6 4 4 5 6 8 9 12 15 18 21 24 26 28 29 31 33 33 34 35 36 36 36 36 36 35 35 35 36 37 38 39 39 40 40 40 41 42 42 44 44 44 45 45 45 46 47 47 48 48 49 48 47 47 46 45 44 44 45 46 47 47 48 49 49 49
23 24 24 24 23 24 24 24 25 25 25 23 21 19 18 16 14 13 12 11 9 8 6 6 5 5 6 7 9 12 15 18 20 22 24 25 27 30 32 32 32 33 34 35 35 35 35 35 36 36 36 36 36 36 36 36 36 37 37 37 38 39 40 40 41 41 42 43 44 45 45 45 45 45 45 44 43 42 42 43 44 44 45 46 47 47 47
23 24 24 25 25 24 24 24 24 24 24 24 23 21 19 17 15 14 14 13 12 10 8 7 7 6 7 8 9 11 13 15 18 20 21 22 23 25 27 28 28 28 29 30 31 32 32 33 34 35 35 35 35 34 34 34 35 35 35 35 35 35 35 36 36 37 37 38 39 41 43 44 44 44 43 43 43 43 43 43 43 43 44 45 45 45 46
22 23 24 25 25 25 25 24 24 24 23 23 23 21 20 19 17 15 14 14 13 12 10 9 8 7 8 8 9 10 11 12 13 15 16 18 20 21 22 23 24 24 26 27 28 28 28 28 29 30 31 31 32 33 33 34 35 35 35 35 34 34 35 35 35 36 37 38 40 42 43 44 44 44 44 45 45 45 45 44 44 44 45 45 46 46 47
22 22 23 24 24 25 25 25 24 23 23 22 22 21 21 20 19 17 16 15 13 12 11 10 9 9 9 10 10 11 11 12 11 10 9 11 14 16 18 20 21 22 22 23 24 25 25 25 25 25 26 26 27 29 31 31 33 33 34 34 34 35 35 36 37 37 38 40 42 44 44 45 46 46 47 47 47 46 46 46 46 46 47 48 49 50 51
21 22 22 23 24 24 24 24 24 24 23 23 22 21 21 20 19 19 18 17 15 13 12 11 11 10 10 10 11 11 12 12 12 11 9 7 8 10 12 14 16 17 18 19 20 21 21 22 22 22 23 23 24 25 26 27 28 29 30 31 32 33 34 36 37 37 38 40 42 44 45 45 46 47 47 47 48 48 48 49 49 50 50 51 52 53 54
21 22 22 23 23 24 24 23 23 23 23 23 22 21 20 20 19 19 18 17 16 16 15 13 12 12 11 11 11 11 11 12 12 11 11 9 7 7 7 8 10 12 14 15 16 17 18 19 19 19 20 21 21 22 22 23 24 25 26 26 27 28 29 31 33 34 36 37 39 41 42 43 44 45 46 47 48 49 49 49 50 50 50 50 51 52 53
21 22 22 23 23 24 24 24 23 23 22 22 22 21 20 20 19 18 18 17 18 17 17 15 14 14 13 12 12 11 11 12 12 11 11 10 9 8 6 5 6 8 9 11 12 13 14 15 16 17 18 19 19 20 21 21 22 23 24 24 25 26 27 28 29 30 31 32 34 36 38 39 41 43 44 45 46 46 47 47 47 47 48 48 49 50 51
21 22 23 23 24 24 24 24 24 23 23 22 22 21 21 20 19 18 17 17 17 17 17 16 15 15 14 13 13 12 12 11 11 11 10 10 9 8 7 6 5 5 6 6 7 9 10 12 12 13 14 15 17 18 19 20 21 22 23 23 24 24 25 25 26 27 28 29 31 33 35 37 39 40 41 41 41 42 43 44 45 46 46 47 48 49 50
21 22 23 23 24 24 24 24 25 24 24 23 22 21 21 20 19 19 19 19 18 17 17 16 15 15 14 14 14 14 13 12 12 11 10 10 10 9 8 7 6 6 6 6 6 6 7 8 8 8 9 11 14 16 16 17 18 19 20 21 21 21 22 23 23 25 26 27 29 31 33 35 36 38 38 38 39 40 42 43 44 45 46 47 48 49 50
21 22 23 23 24 24 24 24 24 25 25 25 24 23 22 21 21 21 20 20 19 18 18 17 16 15 15 14 14 14 13 13 13 12 11 10 10 9 8 7 7 7 7 8 8 8 8 8 8 8 9 11 13 14 16 17 18 18 18 19 19 21 22 23 24 25 26 28 29 31 32 34 35 36 37 38 39 40 41 42 43 44 45 46 47 47 48
21 22 23 23 24 24 24 24 24 24 25 25 25 23 23 22 22 22 21 19 19 18 18 18 17 16 15 15 14 14 13 13 13 13 12 11 10 9 9 8 8 8 8 8 9 10 10 10 9 10 10 12 14 15 16 18 19 18 18 19 19 21 22 23 25 26 27 28 30 31 31 32 33 34 35 36 37 39 40 40 41 42 43 43 44 44 44
21 22 23 23 24 24 24 24 24 24 24 24 24 23 23 23 22 22 21 20 19 19 18 18 18 17 17 16 15 14 14 13 13 13 12 11 10 10 9 9 9 9 9 10 10 10 11 11 11 10 11 13 15 16 17 18 18 18 17 17 18 19 21 23 25 26 26 27 29 29 30 31 32 33 34 35 36 37 37 36 37 37 37 37 36 36 36
21 22 23 23 24 24 24 24 24 24 24 24 24 24 23 23 22 22 22 21 20 19 18 17 17 17 17 17 15 14 14 14 14 13 12 11 11 10 9 9 9 9 10 10 10 11 11 12 11 11 12 13 15 15 16 18 17 16 16 17 18 19 20 21 23 24 25 26 27 28 29 30 31 32 32 33 33 32 30 29 28 28 27 26 26 25 25
22 23 23 24 24 24 24 25 24 24 24 24 24 24 23 23 23 23 23 23 22 20 19 18 17 16 16 17 16 15 15 15 15 14 14 13 12 12 11 11 10 10 10 10 10 11 12 12 12 12 12 13 14 15 16 16 16 16 16 17 19 19 20 20 21 22 24 24 25 26 27 28 29 29 28 27 26 24 22 21 20 19 19 18 18 19 19
23 24 24 25 26 26 26 25 25 25 25 24 24 24 24 23 24 24 24 23 22 21 21 20 18 17 17 17 17 16 15 15 14 13 14 14 14 13 13 12 12 12 12 11 11 11 12 12 13 13 12 13 14 15 15 15 16 16 16 17 18 19 19 20 21 22 22 23 23 24 25 25 24 23 22 20 19 17 16 15 15 16 16 17 17 18 18
25 25 25 25 26 27 27 27 26 26 26 26 25 25 25 24 24 24 23 23 22 22 21 21 20 19 18 18 17 16 15 15 14 13 13 13 13 13 13 12 13 13 13 12 12 12 12 13 13 13 12 13 13 14 14 14 15 16 16 17 18 19 19 20 20 21 21 21 21 21 21 20 19 18 16 15 14 13 13 14 14 15 16 16 17 17 16
26 26 26 26 26 27 28 28 28 27 27 26 26 26 25 24 24 24 23 23 23 22 21 21 21 20 20 19 18 17 16 16 15 14 14 13 13 13 13 12 13 14 14 13 12 12 12 13 14 13 12 11 12 12 13 15 15 15 15 16 17 18 19 20 20 21 20 19 18 17 17 17 16 14 12 11 11 11 11 13 15 16 16 16 15 15 15
27 27 27 27 27 27 28 28 28 28 28 27 27 26 25 24 24 24 23 23 23 23 22 21 22 21 21 21 21 19 18 17 16 15 15 15 13 13 13 13 13 13 14 14 13 13 13 13 14 13 12 11 11 11 13 15 15 14 15 16 16 17 18 19 20 21 20 17 16 14 14 14 14 12 10 9 9 9 10 12 14 15 15 14 13 13 14
29 29 28 28 28 28 28 28 29 28 28 28 27 27 26 25 24 24 23 23 23 23 22 22 23 22 21 21 21 21 19 18 17 15 15 16 15 14 14 14 13 14 15 15 14 13 13 13 14 14 14 12 11 11 13 15 15 14 14 15 16 17 18 19 19 19 18 16 14 12 12 12 12 10 9 8 8 8 10 12 13 14 13 11 10 11 12
30 30 29 28 28 28 28 28 29 29 28 28 28 27 27 27 25 24 24 23 22 22 23 23 23 23 22 20 21 21 20 18 17 16 15 15 16 16 15 14 14 14 15 15 14 14 14 13 13 14 14 12 11 12 13 15 15 15 15 16 16 17 18 18 18 18 16 14 13 11 11 11 11 10 9 8 7 8 10 11 12 11 9 8 8 10 10
30 30 30 29 29 29 28 29 29 29 29 28 28 28 28 28 26 25 24 23 22 21 22 22 22 22 22 20 20 20 20 19 18 17 16 15 15 16 16 15 15 15 16 15 14 15 16 15 15 14 13 12 11 12 13 14 14 14 15 16 17 17 18 18 18 16 15 13 12 11 10 10 10 10 9 9 8 9 9 10 11 9 7 7 8 8 7
30 30 30 29 29 29 29 29 29 29 29 29 29 29 29 28 27 26 25 23 22 20 21 22 21 21 22 21 20 20 20 20 19 19 18 16 16 17 17 17 17 17 17 15 15 15 16 16 16 16 14 13 12 12 14 14 13 13 15 16 17 17 17 17 17 15 13 12 11 10 10 10 9 9 9 8 9 9 9 9 9 7 5 7 7 5 3
30 30 30 30 30 30 30 30 29 29 29 29 29 29 29 28 27 26 25 24 22 21 21 22 21 21 21 22 20 19 19 19 19 19 18 18 17 18 18 18 18 18 18 17 16 15 15 15 16 16 15 14 13 13 15 15 13 13 15 16 17 17 17 17 16 14 13 11 10 9 9 9 9 9 8 8 8 9 8 7 7 6 5 6 5 2 3
31 31 31 31 31 31 31 31 30 29 29 28 28 28 28 27 27 26 25 24 23 22 21 21 21 22 22 22 21 19 18 18 19 19 18 18 18 18 18 18 19 19 19 19 18 17 16 16 15 15 15 14 14 14 16 16 14 13 15 16 16 16 17 16 15 13 12 11 10 8 8 9 8 8 8 7 7 8 7 5 5 5 5 4 2 3 5
31 32 32 32 31 31 31 30 30 29 28 28 27 27 27 27 26 26 26 24 22 21 20 19 20 21 22 22 21 21 20 19 19 19 19 19 19 18 18 19 19 19 19 19 19 18 18 17 16 15 15 15 14 15 16 16 15 14 14 15 16 16 16 15 14 12 12 12 11 9 8 8 7 7 7 6 6 6 5 3 4 5 5 2 1 5 6
32 32 32 32 31 31 31 30 29 28 27 27 27 26 26 26 27 26 25 23 22 20 20 20 21 22 22 22 21 21 20 20 20 20 20 20 20 20 20 19 19 19 19 19 19 19 19 17 16 15 15 15 15 15 16 16 15 14 14 15 15 15 15 15 14 12 11 11 11 9 8 7 6 5 6 6 6 5 3 2 2 4 4 2 1 4 6
32 32 32 32 31 30 30 29 27 27 27 27 27 26 26 26 26 25 24 23 21 20 19 20 21 23 24 24 23 22 21 20 21 21 21 21 21 21 21 21 20 20 20 20 19 19 19 18 17 16 16 16 15 15 16 16 16 15 14 14 14 15 15 14 14 13 11 11 12 11 8 7 6 5 5 6 6 4 2 1 1 2 3 2 1 1 3
32 32 31 31 30 29 28 27 26 26 27 27 26 26 25 25 24 24 23 22 21 19 18 19 21 22 24 25 25 24 24 23 22 22 23 22 22 21 21 21 21 21 22 21 20 19 19 18 17 17 16 16 16 15 16 16 16 15 14 13 13 14 14 13 13 13 11 10 12 12 9 7 6 5 5 6 5 4 1 0 0 0 1 2 1 1 1
32 31 30 29 28 27 26 26 26 26 26 26 25 25 24 23 22 22 22 21 21 20 20 20 21 22 24 25 26 25 25 25 24 23 23 23 23 23 22 20 20 22 23 22 21 20 19 18 17 17 17 16 16 16 17 17 16 15 15 13 12 12 13 13 12 12 12 11 12 12 10 8 7 7 6 5 5 4 2 1 1 1 1 1 1 1 1
30 29 28 28 27 26 25 25 25 25 24 24 24 24 23 22 21 22 22 21 21 21 20 20 21 22 23 25 25 25 25 25 25 24 23 23 24 24 23 21 21 22 23 23 22 22 21 19 18 17 16 16 16 17 18 18 16 15 14 13 12 11 12 12 12 12 12 12 12 12 11 9 9 8 7 6 5 4 3 2 2 1 1 0 1 1 2
29 28 28 27 27 26 25 24 23 23 23 23 24 23 22 21 21 21 21 21 21 22 22 21 22 22 23 24 25 24 24 24 24 23 22 23 24 25 24 22 21 22 23 23 23 23 22 20 19 18 16 15 15 17 19 18 16 15 14 13 12 11 11 11 11 11 12 13 14 13 12 11 10 10 9 7 6 5 4 3 3 3 2 3 2 2 1
28 28 27 27 27 26 24 23 22 23 23 24 24 24 23 22 21 21 22 22 22 23 23 23 23 23 23 23 24 23 22 22 22 22 22 23 25 25 24 22 22 22 23 23 23 24 23 22 20 19 17 15 15 17 19 19 17 14 13 13 12 11 10 11 11 11 12 14 15 15 14 13 12 11 10 9 8 7 6 5 4 4 4 4 4 4 2
28 27 26 26 26 25 24 22 23 23 23 24 25 25 24 23 22 22 23 24 24 24 24 25 25 24 24 23 23 23 22 21 20 20 21 23 25 25 24 23 22 22 22 22 22 23 24 24 22 20 17 15 14 16 18 19 17 16 14 13 13 11 10 11 11 11 12 14 16 17 16 15 14 13 12 11 10 9 8 7 6 6 6 6 6 6 4
27 26 25 25 25 25 24 23 23 23 23 24 26 26 26 25 25 24 25 26 26 26 26 27 26 25 25 24 24 23 23 22 20 19 20 22 24 24 24 23 23 23 23 22 21 21 23 24 23 22 19 16 15 16 17 17 16 16 15 15 14 13 12 11 11 12 12 13 16 18 19 18 17 15 14 13 12 11 10 9 8 8 8 8 9 8 7
Wind_Direction
316 313 309 306 302 298 294 289 284 280 278 276 272 265 258 250 245 242 242 240 239 241 246 250 248 246 242 236 230 225 222 217 211 210 213 214 216 220 225 227 226 224 224 226 232 236 235 234 229 222 221 222 223 223 221 218 217 219 222 226 228 230 230 230 223 215 213 215 218 220 224 230 234 232 232 233 231 233 236 238 241 244 247 252 254 246 243
322 319 315 312 309 305 302 297 291 283 276 272 269 264 257 251 245 241 241 241 241 240 241 239 234 234 237 232 226 222 219 216 210 208 211 213 214 217 222 229 230 228 227 227 227 231 234 239 239 231 227 228 227 225 226 224 221 219 219 222 226 228 229 230 225 217 215 214 216 225 230 231 231 232 237 240 240 241 244 244 244 244 245 250 252 251 250
330 326 323 319 316 314 312 310 305 297 284 272 265 260 255 250 244 240 239 239 238 235 235 235 232 234 237 233 226 221 217 214 210 209 211 214 216 217 219 226 231 230 230 229 229 229 230 233 240 239 236 236 235 232 232 231 228 226 223 222 224 225 225 228 229 227 223 221 222 227 229 229 232 236 240 243 246 247 247 246 247 248 250 253 255 257 259
336 332 328 324 322 320 319 318 317 312 300 281 264 254 249 246 242 237 234 233 233 231 232 236 237 237 237 234 228 225 220 217 214 212 214 217 220 220 219 223 230 232 231 230 229 229 230 231 236 241 242 240 238 237 238 236 232 230 230 229 230 231 229 230 233 233 229 227 228 226 224 227 234 240 243 244 246 247 248 249 250 251 256 259 260 262 261
341 337 332 327 324 323 321 321 322 322 316 297 268 250 242 239 238 235 229 228 231 233 234 236 239 240 238 233 229 226 223 220 219 218 219 220 223 225 224 224 228 230 230 229 228 229 233 233 234 238 242 242 242 242 242 242 238 234 232 231 233 237 237 236 236 235 232 231 233 232 230 231 236 241 244 246 247 248 251 254 254 256 258 258 259 260 259
346 342 337 332 328 325 324 324 325 327 327 315 282 251 236 229 229 231 229 225 225 228 232 235 237 238 237 233 231 229 226 222 221 223 225 225 225 229 231 230 229 230 229 228 228 231 236 238 236 236 240 243 245 247 247 245 242 240 236 234 234 236 238 238 239 239 237 235 237 238 238 241 245 246 246 247 249 250 252 254 256 258 259 257 257 260 262
351 348 344 340 335 332 329 329 329 331 334 328 301 257 234 224 220 221 225 225 222 221 225 229 231 232 234 235 233 231 229 227 226 226 229 230 229 230 233 234 232 232 232 232 232 233 237 242 241 238 239 242 244 248 250 250 249 248 246 243 241 241 242 243 245 247 248 249 250 248 246 248 251 250 248 246 247 247 249 251 253 256 258 258 260 263 265
354 352 350 347 344 341 339 338 338 339 341 340 325 276 239 224 217 214 215 220 222 221 223 229 231 231 233 236 236 233 232 232 231 230 230 231 231 231 233 235 235 234 234 234 236 237 239 243 244 242 242 244 245 247 250 253 255 256 255 253 251 249 250 251 253 255 256 257 257 256 253 251 249 248 248 247 246 245 246 248 251 254 257 259 261 263 264
357 355 354 352 350 347 346 345 346 347 349 350 343 309 253 231 222 216 213 215 217 218 219 225 230 232 235 237 236 235 234 233 232 231 230 230 230 230 231 234 237 238 237 237 237 237 238 239 241 244 246 247 249 252 254 256 259 260 260 260 260 259 258 257 256 257 257 257 257 257 255 253 250 248 247 248 247 247 248 250 252 254 256 259 261 262 264
358 357 356 355 353 350 348 348 349 350 353 355 355 344 290 244 230 223 218 217 218 219 219 220 224 230 235 236 236 236 235 235 233 231 230 230 229 229 230 232 236 238 240 240 240 238 237 238 241 245 246 246 250 255 257 259 260 262 262 261 262 262 262 261 259 257 257 256 256 256 256 255 255 253 251 252 252 251 251 252 254 255 257 259 261 263 264
360 359 358 357 355 352 349 348 348 350 353 355 357 356 340 283 243 230 225 223 223 224 226 227 227 230 233 235 236 237 238 239 239 236 235 233 231 230 230 232 235 237 239 240 241 241 240 240 243 245 244 244 246 249 252 256 259 262 263 264 264 264 265 266 266 265 264 263 261 261 260 260 260 259 259 259 260 258 258 257 257 258 259 260 261 263 264
2 1 360 359 358 356 353 350 349 348 349 350 353 355 356 342 278 240 231 230 229 229 230 231 232 234 236 236 237 239 240 242 243 243 241 240 237 235 234 234 235 238 240 240 241 242 242 243 246 247 247 247 246 245 246 250 254 258 261 263 265 266 267 267 268 268 269 268 267 265 264 264 264 264 264 264 264 264 263 262 262 262 262 262 262 262 262
3 3 2 1 360 359 358 357 355 352 350 347 347 351 356 359 349 277 240 235 234 234 235 234 233 235 238 240 241 242 242 243 245 246 247 246 243 242 242 240 238 239 241 242 242 243 245 246 247 249 249 249 248 247 246 247 250 254 257 259 261 262 263 264 266 267 267 268 268 268 267 266 265 265 265 265 265 265 265 263 263 262 262 262 262 262 262
4 4 3 3 3 2 3 3 3 2 0 356 353 353 356 360 4 354 287 248 240 238 239 240 239 239 240 242 244 245 246 246 247 249 251 250 249 248 247 246 244 244 244 246 246 246 247 249 250 250 251 251 250 248 248 249 251 252 253 255 257 258 259 261 263 264 264 265 267 267 268 267 267 266 266 267 268 267 267 266 265 264 263 263 262 262 262
5 5 5 6 6 5 6 8 8 9 10 11 10 9 8 8 9 8 356 296 257 246 242 242 243 244 244 244 245 247 249 250 249 250 251 252 251 251 251 250 249 249 250 251 251 251 251 252 253 253 254 253 252 251 249 249 251 252 253 254 255 257 259 261 262 263 264 264 264 265 266 267 268 268 269 268 269 269 268 267 267 267 266 265 264 263 263
6 7 8 8 8 8 9 11 11 11 12 15 17 18 17 17 16 12 7 349 294 268 258 251 248 247 247 247 247 248 249 251 251 251 252 252 251 251 253 253 253 254 254 253 253 252 252 252 253 254 255 254 254 254 254 253 254 255 256 256 257 258 259 260 262 263 265 265 265 266 266 267 267 267 268 268 268 267 266 266 265 265 266 266 266 265 265
9 9 10 11 10 10 11 13 14 14 14 13 15 17 17 18 18 13 6 3 356 328 294 274 261 254 252 251 249 248 249 250 251 251 252 252 252 252 252 254 255 256 256 256 255 254 252 251 251 253 255 255 255 256 257 257 257 257 258 258 259 259 260 260 261 262 264 265 266 267 268 268 268 268 268 268 267 266 265 264 263 264 265 266 266 266 265
13 12 13 13 12 13 13 14 15 17 18 16 16 16 16 17 18 17 13 9 7 359 335 309 289 277 269 263 259 257 255 254 253 252 252 253 253 252 252 252 252 254 255 256 256 256 256 255 254 254 255 256 256 257 257 257 257 257 257 259 259 260 260 260 261 262 263 265 266 267 268 269 269 268 267 267 267 266 264 263 264 265 265 264 264 265 265
16 16 16 16 15 15 15 15 16 17 19 20 20 19 18 18 17 17 17 15 9 0 348 335 327 317 304 292 281 274 270 266 262 258 255 254 254 254 253 252 251 253 254 255 256 256 256 256 255 255 256 256 256 257 258 257 257 257 257 257 257 258 259 260 261 262 263 264 266 267 267 267 267 267 267 267 267 265 264 265 266 265 265 264 264 265 265
17 18 18 18 18 18 17 17 17 18 19 20 21 22 21 19 17 15 15 15 13 9 359 350 347 343 330 317 307 298 289 280 273 267 263 259 258 257 256 254 253 253 253 254 254 255 255 254 254 253 253 254 254 256 257 257 256 255 255 254 254 254 254 255 256 257 259 260 261 262 263 264 265 266 268 268 267 266 267 267 267 266 266 266 266 266 266
13 13 14 15 16 17 18 17 17 18 19 19 20 22 22 21 19 17 15 14 14 13 7 360 360 357 343 336 337 333 322 308 294 282 273 266 262 258 257 257 255 252 252 252 253 253 253 253 253 252 252 252 252 252 253 254 255 254 254 254 253 251 250 249 248 248 249 250 251 252 255 259 263 265 267 267 267 268 269 269 269 270 269 269 267 266 265
8 8 8 9 11 13 15 16 17 17 18 19 19 20 21 21 20 18 17 16 13 10 5 360 2 1 351 346 351 352 346 342 337 325 303 282 269 260 256 255 254 254 253 253 253 254 253 251 250 251 250 250 249 249 250 252 254 254 254 253 252 252 251 250 248 247 245 245 246 248 251 254 258 261 263 264 266 268 269 270 271 272 271 270 269 269 269
6 6 6 7 8 9 11 12 13 14 16 18 18 18 19 19 18 18 18 17 14 11 7 2 359 359 354 351 350 350 351 355 358 354 342 321 293 274 265 258 256 256 256 255 255 254 253 251 249 249 249 248 248 249 250 251 252 254 254 254 253 254 254 254 254 252 250 249 250 252 254 256 259 262 265 267 269 270 270 271 272 271 271 271 271 271 272
6 6 7 7 7 8 8 9 10 11 12 14 16 16 16 16 16 16 15 14 13 13 11 7 2 359 356 352 349 347 348 355 359 357 354 349 336 314 295 276 263 258 256 256 255 253 252 251 251 250 250 250 249 250 251 252 253 254 254 254 255 255 256 257 258 258 257 257 258 259 260 261 262 264 266 267 269 270 270 271 271 271 271 272 272 272 272
6 6 6 7 7 8 7 8 9 10 10 10 12 13 13 14 14 13 12 11 11 10 8 6 6 3 358 354 350 348 347 350 353 352 351 351 352 348 338 316 286 270 262 260 259 257 255 253 251 250 252 253 254 254 254 254 255 256 256 256 255 255 256 257 258 259 260 261 262 262 263 263 262 262 263 265 267 269 271 272 273 273 273 273 273 273 272
4 5 5 6 6 7 6 6 7 8 9 9 8 9 10 10 9 9 11 11 10 7 5 4 4 3 359 355 354 352 348 346 346 346 344 344 345 346 346 340 323 304 289 277 268 262 259 258 255 254 256 258 258 258 257 257 258 260 261 260 259 260 260 260 261 261 261 261 261 263 264 265 265 266 267 268 270 272 273 274 274 275 275 276 276 276 276
2 2 3 3 4 4 5 5 4 6 7 7 7 8 8 5 4 6 9 9 6 3 1 1 1 0 359 357 356 355 351 347 346 344 340 337 337 335 333 330 322 316 311 302 290 279 273 273 271 265 261 259 259 260 261 261 260 261 264 267 268 269 269 267 266 265 265 264 264 264 266 267 269 271 272 274 274 274 273 274 274 275 276 277 277 278 279
358 359 359 360 0 1 2 2 2 2 3 2 3 6 5 3 3 5 5 3 1 358 357 358 358 358 357 356 356 356 354 349 348 346 339 333 330 327 326 322 315 308 305 301 297 293 288 285 280 272 267 264 263 264 266 267 267 267 270 272 274 274 274 274 273 272 270 269 268 268 268 270 271 273 274 275 275 275 276 276 276 277 277 277 277 278 278
354 354 355 356 357 357 358 359 359 359 360 359 359 1 2 2 3 3 1 359 357 354 352 354 355 355 355 354 355 356 354 350 348 347 343 337 330 326 323 318 310 304 301 298 295 292 290 287 283 280 278 275 273 272 271 272 273 274 275 275 275 275 275 276 275 274 273 273 273 273 274 274 274 275 275 275 276 276 277 278 279 279 279 279 279 279 279
350 350 351 352 353 353 354 355 355 356 356 356 355 355 358 360 360 359 357 356 355 353 351 350 350 350 350 352 353 353 350 347 347 346 343 342 338 333 325 316 308 304 301 297 294 292 290 289 289 288 284 280 279 280 279 279 279 280 281 280 276 272 270 270 271 272 274 275 276 277 277 278 278 278 278 279 279 280 281 282 282 282 282 282 283 283 283
345 346 347 347 348 349 350 350 351 352 352 352 351 351 353 355 356 355 355 354 353 352 350 349 348 347 345 347 351 350 345 343 345 343 342 344 343 336 329 322 313 306 301 299 298 297 294 293 293 291 287 284 284 284 283 284 286 288 286 282 277 274 272 272 272 274 275 276 277 279 280 281 281 282 283 284 285 285 286 286 286 286 286 286 286 286 287
341 342 342 343 343 345 345 346 347 348 348 348 348 347 348 350 351 352 350 349 349 349 349 350 351 348 342 342 346 347 343 341 342 340 337 339 340 336 331 328 321 313 308 306 304 300 298 297 295 292 289 289 288 287 287 289 290 289 286 284 283 282 281 279 279 279 279 281 283 284 285 285 286 287 288 289 289 290 292 293 293 294 295 294 294 295 295
337 338 339 339 339 339 340 342 343 343 343 344 343 343 343 346 348 347 345 343 344 345 346 348 350 350 345 342 344 343 338 336 339 338 333 332 334 332 330 328 323 318 317 317 312 306 303 300 297 296 295 293 290 290 291 291 290 289 289 288 286 285 284 284 284 284 285 288 290 290 289 290 290 291 292 292 293 297 301 303 304 305 305 305 306 305 304
333 333 334 336 335 334 335 337 338 338 339 339 338 338 341 343 342 340 339 338 339 341 343 345 347 349 347 343 342 341 335 331 334 335 329 327 328 326 325 326 322 318 320 322 318 313 310 306 303 303 302 298 295 296 295 292 290 291 292 292 290 289 289 289 289 291 293 295 295 294 293 292 291 293 294 295 297 302 306 309 312 313 314 314 311 310 313
328 328 330 331 331 330 330 332 333 333 333 333 333 334 336 337 335 332 333 334 335 337 340 342 343 345 345 342 340 341 337 333 333 332 327 326 326 323 322 325 322 317 318 321 320 317 313 309 308 308 304 300 299 299 296 293 293 297 298 297 296 297 297 298 298 300 301 301 298 295 293 291 293 295 296 296 299 304 309 316 320 322 324 323 319 320 323
322 323 325 327 327 326 327 328 328 329 329 328 328 329 330 329 327 327 329 330 330 331 335 339 338 340 341 340 338 340 339 336 333 331 325 323 323 321 319 321 319 315 315 318 319 318 314 311 312 312 310 306 303 298 294 294 299 303 304 302 302 303 304 305 306 306 305 302 298 293 291 290 292 296 298 299 302 305 313 321 325 326 327 326 325 326 326
318 319 321 323 323 323 324 324 324 325 325 324 324 323 322 322 322 323 324 326 326 327 331 334 333 333 336 337 335 336 337 337 334 331 326 321 320 319 318 318 318 314 312 314 317 315 313 312 313 313 313 313 308 300 296 298 303 305 305 304 305 307 308 310 310 308 304 299 293 289 289 290 292 296 300 300 301 304 312 320 326 327 327 326 327 330 332
314 316 318 319 319 320 321 321 320 321 322 320 319 318 316 316 318 320 321 321 323 325 326 327 327 327 329 332 332 331 332 333 332 332 330 324 319 317 316 316 315 311 309 312 314 312 310 311 311 311 312 313 307 301 300 302 305 307 307 306 307 309 311 314 313 307 300 293 287 286 289 292 294 299 300 297 295 300 310 322 330 331 328 328 331 336 342
311 313 315 315 316 316 317 317 317 318 318 317 315 314 313 313 315 316 317 318 320 320 319 319 321 320 321 325 327 325 325 327 329 330 332 331 323 317 316 315 312 308 307 310 312 310 309 310 310 311 313 312 305 300 300 301 303 306 306 305 307 310 314 317 315 305 294 286 283 285 291 295 298 302 299 292 291 298 312 326 333 330 329 338 345 349 359
309 310 311 312 313 313 314 314 315 315 315 315 313 312 311 312 312 313 313 314 316 315 312 312 314 314 314 316 319 318 318 321 324 326 331 333 328 322 320 317 313 310 308 309 308 308 308 309 310 311 313 312 306 299 297 299 303 305 303 304 308 312 317 319 314 303 289 278 275 283 296 302 303 304 300 293 292 298 312 327 331 328 337 351 355 5 34
307 308 309 310 311 311 312 312 313 314 313 312 311 310 310 310 310 309 310 312 313 313 311 310 310 309 307 308 310 311 313 315 317 320 326 328 327 325 323 320 316 313 311 309 307 306 304 304 305 308 311 311 306 299 297 299 304 304 302 303 309 313 317 319 313 300 284 271 268 281 298 305 307 307 304 298 295 299 308 322 328 332 349 358 2 51 111
306 308 308 309 309 310 310 311 312 312 311 310 309 308 308 308 308 308 310 312 313 313 312 310 308 306 304 304 305 306 307 309 311 314 319 321 322 322 323 321 318 315 311 308 307 305 303 302 304 306 308 307 303 297 295 298 303 304 302 304 308 312 316 318 312 298 281 268 263 274 293 303 306 307 306 303 299 298 303 314 328 339 348 350 14 98 122
305 306 306 307 308 308 308 308 309 309 308 308 307 307 306 306 308 310 312 313 313 312 312 309 304 301 301 302 303 303 305 306 308 310 313 315 316 318 320 320 319 316 311 308 306 304 302 302 304 305 304 304 301 296 294 298 302 303 302 303 306 310 315 317 311 296 278 265 261 268 286 297 300 305 310 307 297 292 296 309 331 342 341 332 86 103 116
304 304 305 305 306 306 306 306 307 307 306 305 305 305 305 307 310 311 312 312 313 314 314 310 305 302 302 302 301 302 303 304 305 306 309 311 313 314 316 318 318 315 312 310 307 303 301 301 302 302 301 301 300 296 294 296 298 299 299 301 304 309 315 317 311 298 277 261 255 259 274 284 289 301 311 303 288 285 300 324 335 341 342 331 88 95 98
303 304 305 305 305 305 306 306 306 306 304 304 304 305 306 309 310 310 310 311 314 316 315 310 307 306 306 306 305 305 305 305 305 307 308 309 310 311 312 314 315 313 311 309 308 305 302 301 301 299 297 298 299 296 292 292 294 294 295 299 302 305 311 315 309 298 280 256 246 249 259 268 272 286 302 298 286 285 312 350 331 339 350 342 334 61 76
303 304 305 305 305 306 307 307 306 305 304 304 305 306 307 309 309 309 309 311 314 317 317 314 310 308 307 307 309 310 310 308 307 307 306 306 307 307 307 309 310 309 307 308 310 308 304 301 299 297 295 295 296 294 290 289 290 291 292 295 298 301 307 312 307 296 282 257 241 241 249 253 255 266 283 289 285 283 298 50 130 12 16 10 349 313 317
303 304 305 306 306 307 307 307 306 305 305 305 305 306 308 309 309 308 309 312 316 319 321 319 314 310 308 307 308 309 309 308 307 306 305 304 304 302 302 304 305 304 304 307 309 308 306 303 299 295 293 293 294 292 289 288 289 289 290 293 295 296 302 308 305 294 281 262 243 238 240 241 243 250 263 274 278 277 263 206 184 180 35 24 26 187 192
303 304 305 305 305 306 305 305 304 304 304 305 305 306 308 310 309 308 310 313 315 318 319 317 313 309 307 307 308 309 308 307 306 305 304 302 300 299 301 303 304 302 302 305 306 306 306 304 300 295 292 291 291 289 287 288 289 289 288 290 291 291 296 304 303 291 277 261 246 236 233 234 235 240 248 258 267 265 251 227 218 219 205 125 146 160 159
303 303 303 303 303 303 304 303 302 302 303 304 305 306 308 308 307 307 308 310 313 315 316 315 312 310 309 309 310 310 309 307 306 306 304 299 296 297 299 301 300 300 300 302 303 304 304 303 301 297 292 288 286 286 286 287 289 288 286 286 288 289 291 297 298 287 272 259 247 236 230 231 234 237 239 245 254 256 246 232 230 228 214 201 200 201 199
302 302 302 302 302 301 301 301 300 301 303 304 304 304 305 305 305 304 305 307 309 311 311 311 310 310 310 310 311 311 310 307 306 304 301 297 295 296 297 297 296 296 297 299 300 301 301 301 300 298 293 288 284 284 284 286 288 288 284 281 284 287 287 289 290 282 267 256 247 238 231 229 232 236 235 236 240 245 243 236 232 229 220 212 211 211 202
302 301 300 301 300 299 299 299 299 300 302 302 302 303 304 303 302 303 304 305 307 308 309 309 310 311 312 312 312 312 310 307 303 299 295 293 294 296 297 297 295 294 294 295 297 298 299 300 300 299 295 289 283 281 282 285 289 290 287 283 282 283 280 279 281 279 267 254 246 240 233 228 228 233 234 232 231 233 235 233 230 228 225 218 212 206 197
299 298 298 298 297 297 297 298 298 298 299 299 299 300 301 302 302 303 303 304 305 306 307 308 309 311 312 312 311 310 308 304 300 295 290 290 292 295 296 295 294 292 292 293 294 295 296 297 299 299 297 291 282 277 277 280 282 283 282 280 279 278 275 272 271 272 268 258 248 241 234 229 227 230 233 233 231 229 228 226 224 225 226 221 212 205 203
Height
5643 5641 5638 5636 5634 5633 5631 5631 5630 5629 5628 5628 5629 5630 5630 5630 5631 5631 5631 5633 5635 5636 5637 5638 5638 5638 5640 5641 5643 5645 5648 5650 5652 5653 5654 5655 5655 5656 5657 5658 5660 5662 5663 5664 5665 5666 5667 5668 5668 5670 5672 5673 5673 5673 5675 5677 5678 5680 5682 5683 5685 5687 5689 5692 5695 5697 5697 5697 5696 5697 5699 5700 5699 5699 5699 5700 5700 5701 5701 5703 5704 5704 5704 5704 5705 5706 5706
5640 5637 5634 5632 5630 5628 5626 5625 5624 5624 5623 5623 5623 5624 5625 5625 5626 5626 5627 5629 5631 5633 5634 5634 5634 5634 5635 5637 5638 5640 5642 5645 5647 5648 5648 5649 5650 5651 5652 5654 5656 5658 5659 5661 5662 5663 5664 5664 5664 5666 5668 5670 5671 5672 5672 5674 5675 5676 5678 5680 5682 5684 5686 5688 5690 5693 5695 5695 5694 5695 5696 5697 5696 5697 5697 5697 5697 5698 5698 5699 5700 5701 5701 5702 5702 5702 5703
5636 5634 5631 5628 5626 5624 5622 5620 5618 5617 5617 5617 5617 5618 5619 5620 5620 5622 5623 5625 5628 5629 5629 5628 5629 5630 5631 5633 5634 5635 5637 5639 5641 5643 5643 5643 5644 5646 5648 5650 5652 5654 5656 5658 5659 5660 5661 5661 5660 5662 5664 5666 5668 5669 5670 5671 5672 5673 5674 5676 5678 5680 5682 5684 5686 5689 5690 5691 5691 5692 5693 5694 5694 5694 5694 5693 5694 5695 5695 5695 5696 5697 5698 5698 5698 5698 5699
5634 5631 5628 5626 5623 5621 5619 5617 5615 5612 5612 5611 5611 5612 5614 5615 5615 5617 5619 5621 5623 5625 5624 5623 5625 5626 5627 5629 5630 5631 5633 5635 5636 5637 5638 5639 5641 5642 5644 5646 5648 5651 5654 5655 5656 5655 5656 5658 5658 5659 5661 5662 5663 5665 5666 5667 5669 5671 5672 5673 5675 5677 5679 5680 5682 5684 5686 5686 5687 5689 5690 5691 5691 5691 5690 5690 5690 5691 5692 5692 5693 5694 5694 5694 5694 5695 5695
5632 5629 5626 5623 5621 5619 5616 5614 5612 5609 5607 5606 5605 5606 5608 5610 5611 5612 5614 5617 5619 5620 5620 5620 5621 5622 5624 5625 5625 5627 5629 5631 5632 5633 5633 5635 5637 5638 5641 5643 5645 5647 5650 5652 5653 5652 5652 5655 5656 5657 5658 5659 5660 5661 5663 5664 5666 5668 5669 5670 5672 5673 5674 5676 5678 5680 5681 5682 5683 5685 5686 5687 5688 5687 5687 5686 5687 5687 5688 5689 5689 5690 5692 5691 5690 5691 5690
5630 5627 5624 5621 5619 5616 5614 5611 5609 5606 5604 5601 5600 5601 5602 5604 5606 5608 5609 5612 5613 5614 5615 5616 5617 5619 5620 5620 5621 5623 5625 5627 5628 5629 5630 5633 5634 5635 5637 5640 5642 5643 5645 5648 5650 5650 5650 5652 5653 5654 5655 5657 5657 5657 5658 5661 5663 5665 5666 5668 5670 5671 5671 5673 5675 5676 5677 5679 5680 5681 5682 5683 5684 5684 5684 5683 5684 5684 5684 5684 5684 5686 5688 5687 5686 5687 5686
5629 5626 5623 5620 5617 5614 5611 5609 5606 5604 5601 5599 5597 5596 5597 5599 5601 5603 5604 5606 5608 5610 5611 5612 5613 5614 5614 5616 5619 5621 5622 5623 5625 5626 5628 5630 5631 5632 5634 5637 5638 5639 5641 5644 5647 5648 5649 5650 5650 5651 5652 5653 5654 5653 5654 5656 5659 5661 5664 5666 5668 5669 5669 5670 5672 5673 5673 5675 5675 5677 5679 5680 5680 5679 5679 5680 5681 5681 5681 5681 5681 5682 5683 5682 5682 5683 5682
5628 5625 5622 5619 5616 5612 5610 5607 5604 5602 5599 5597 5594 5594 5594 5595 5596 5598 5599 5601 5604 5607 5608 5609 5610 5611 5611 5613 5616 5617 5617 5619 5622 5624 5625 5626 5628 5630 5631 5633 5634 5636 5638 5640 5643 5646 5647 5648 5648 5648 5649 5650 5651 5650 5651 5652 5654 5655 5658 5661 5663 5665 5666 5667 5668 5669 5669 5670 5670 5672 5674 5675 5675 5674 5675 5676 5677 5677 5677 5678 5678 5678 5678 5678 5678 5678 5678
5627 5624 5621 5618 5615 5612 5609 5606 5603 5601 5598 5596 5594 5592 5592 5592 5593 5595 5596 5599 5602 5604 5605 5606 5608 5608 5608 5610 5612 5613 5613 5615 5618 5620 5621 5622 5624 5626 5628 5629 5631 5632 5635 5637 5639 5642 5644 5645 5645 5646 5647 5647 5648 5648 5649 5649 5650 5651 5653 5655 5656 5658 5660 5662 5663 5664 5664 5665 5665 5667 5668 5669 5669 5669 5671 5671 5671 5672 5673 5673 5674 5673 5673 5673 5673 5673 5673
5627 5624 5620 5617 5614 5611 5608 5605 5603 5600 5598 5595 5593 5592 5591 5591 5592 5593 5595 5597 5599 5600 5602 5603 5605 5605 5605 5607 5609 5610 5611 5612 5615 5616 5617 5619 5620 5622 5624 5626 5627 5629 5632 5633 5635 5637 5640 5641 5641 5642 5643 5644 5644 5646 5646 5646 5646 5646 5647 5649 5650 5652 5654 5655 5656 5658 5658 5659 5661 5662 5663 5663 5663 5664 5665 5665 5664 5666 5667 5667 5668 5667 5667 5668 5668 5668 5668
5626 5623 5620 5617 5613 5610 5607 5605 5602 5600 5598 5595 5593 5592 5591 5591 5591 5592 5593 5594 5596 5597 5598 5599 5601 5602 5603 5605 5607 5608 5609 5610 5612 5613 5614 5615 5617 5619 5621 5622 5624 5626 5628 5629 5631 5633 5635 5636 5637 5638 5638 5639 5640 5641 5642 5642 5642 5641 5642 5644 5645 5646 5647 5648 5649 5651 5651 5652 5655 5656 5656 5656 5656 5657 5658 5658 5658 5659 5661 5661 5661 5662 5662 5663 5663 5663 5663
5626 5623 5620 5617 5613 5610 5607 5604 5602 5600 5598 5596 5594 5592 5591 5590 5590 5591 5592 5593 5594 5594 5595 5596 5597 5599 5600 5602 5604 5606 5607 5608 5608 5609 5610 5611 5613 5615 5617 5619 5621 5622 5623 5625 5626 5628 5629 5630 5631 5632 5633 5634 5635 5637 5638 5638 5638 5638 5639 5639 5640 5641 5641 5642 5642 5644 5644 5645 5647 5647 5648 5649 5650 5650 5650 5650 5651 5653 5653 5654 5655 5655 5656 5657 5657 5657 5657
5626 5623 5620 5617 5613 5610 5607 5604 5601 5599 5597 5595 5594 5592 5591 5591 5590 5590 5590 5591 5592 5592 5593 5594 5595 5596 5597 5599 5601 5602 5604 5604 5605 5606 5606 5607 5609 5611 5613 5615 5617 5618 5619 5620 5622 5623 5624 5624 5626 5627 5628 5629 5630 5631 5633 5634 5635 5635 5635 5635 5635 5635 5636 5636 5637 5638 5638 5638 5640 5640 5640 5642 5644 5644 5643 5644 5645 5646 5647 5647 5647 5648 5649 5649 5650 5651 5651
5626 5623 5620 5617 5614 5610 5607 5604 5601 5599 5597 5595 5593 5592 5591 5591 5590 5590 5590 5590 5590 5591 5591 5592 5594 5595 5596 5597 5598 5599 5600 5600 5601 5602 5602 5603 5606 5608 5608 5610 5612 5614 5615 5617 5618 5618 5619 5620 5621 5622 5622 5624 5625 5626 5627 5629 5630 5629 5629 5629 5630 5630 5630 5631 5632 5633 5633 5633 5634 5634 5633 5634 5636 5637 5638 5638 5638 5639 5640 5640 5639 5640 5641 5642 5643 5643 5643
5625 5623 5620 5617 5614 5611 5607 5604 5602 5599 5597 5595 5593 5592 5591 5591 5590 5590 5589 5589 5589 5589 5590 5591 5591 5592 5594 5595 5595 5596 5596 5596 5597 5598 5598 5599 5602 5603 5603 5604 5607 5609 5611 5612 5613 5613 5614 5615 5615 5616 5617 5618 5619 5620 5622 5623 5623 5622 5622 5624 5625 5625 5625 5626 5626 5626 5627 5628 5629 5628 5627 5628 5630 5631 5632 5633 5633 5633 5633 5633 5632 5632 5633 5634 5635 5635 5635
5625 5623 5620 5617 5614 5611 5608 5605 5602 5600 5598 5596 5594 5593 5592 5591 5590 5589 5589 5589 5588 5588 5588 5589 5589 5590 5591 5592 5593 5593 5593 5593 5594 5594 5595 5596 5598 5599 5599 5600 5602 5604 5605 5605 5606 5607 5608 5609 5610 5611 5611 5612 5613 5614 5615 5617 5617 5616 5617 5620 5620 5620 5621 5621 5621 5620 5620 5622 5622 5621 5621 5622 5624 5626 5626 5627 5628 5627 5627 5626 5625 5625 5626 5626 5626 5627 5627
5625 5623 5620 5618 5615 5612 5609 5606 5604 5601 5599 5597 5595 5594 5592 5591 5590 5589 5588 5588 5588 5588 5588 5588 5588 5588 5589 5589 5590 5590 5589 5589 5590 5591 5591 5592 5593 5594 5595 5596 5597 5598 5598 5598 5599 5600 5601 5603 5604 5605 5605 5606 5608 5609 5609 5610 5611 5610 5611 5613 5614 5615 5616 5616 5615 5615 5615 5615 5615 5615 5615 5615 5617 5619 5620 5620 5620 5620 5620 5619 5618 5619 5621 5620 5619 5619 5620
5625 5623 5621 5618 5616 5613 5610 5607 5605 5602 5600 5598 5596 5594 5593 5592 5590 5590 5589 5588 5588 5587 5587 5587 5587 5587 5587 5587 5587 5587 5587 5587 5587 5587 5588 5589 5589 5589 5591 5592 5592 5592 5592 5593 5593 5594 5596 5598 5599 5599 5599 5600 5602 5603 5603 5604 5605 5605 5606 5607 5607 5608 5609 5610 5610 5609 5609 5610 5609 5608 5608 5608 5609 5611 5612 5612 5613 5613 5612 5611 5612 5613 5614 5613 5612 5613 5614
5626 5624 5621 5619 5616 5614 5611 5609 5606 5604 5601 5599 5597 5595 5594 5592 5591 5590 5589 5588 5587 5587 5586 5586 5586 5586 5586 5585 5585 5584 5584 5584 5583 5584 5585 5585 5585 5585 5585 5587 5587 5587 5587 5588 5588 5589 5591 5593 5593 5594 5594 5595 5597 5597 5597 5598 5599 5600 5601 5601 5601 5602 5603 5603 5604 5604 5604 5603 5603 5602 5602 5602 5602 5603 5605 5606 5606 5605 5604 5605 5606 5607 5607 5605 5605 5606 5607
5627 5624 5622 5620 5617 5615 5612 5610 5607 5605 5603 5600 5598 5596 5595 5593 5592 5590 5589 5588 5588 5587 5586 5585 5585 5585 5584 5584 5583 5582 5581 5580 5580 5580 5581 5581 5581 5580 5580 5581 5583 5583 5582 5583 5583 5584 5586 5587 5588 5588 5588 5590 5591 5592 5592 5592 5593 5594 5595 5596 5597 5597 5598 5598 5599 5599 5599 5599 5598 5597 5596 5596 5596 5598 5599 5600 5599 5598 5598 5599 5600 5600 5600 5599 5599 5599 5600
5627 5625 5623 5621 5618 5616 5613 5611 5609 5606 5604 5602 5600 5598 5596 5594 5592 5591 5590 5589 5588 5587 5586 5585 5585 5584 5583 5582 5581 5580 5579 5577 5577 5576 5577 5576 5576 5576 5576 5577 5578 5578 5578 5578 5579 5580 5581 5582 5582 5583 5584 5585 5586 5586 5586 5586 5587 5588 5590 5592 5592 5592 5593 5593 5594 5595 5595 5595 5594 5592 5592 5591 5592 5594 5594 5593 5592 5593 5593 5593 5593 5593 5593 5592 5592 5591 5591
5627 5625 5623 5621 5619 5617 5614 5612 5610 5607 5605 5603 5601 5599 5597 5595 5594 5592 5591 5589 5588 5587 5586 5585 5585 5584 5583 5581 5580 5579 5578 5576 5575 5574 5573 5573 5572 5572 5573 5573 5573 5573 5574 5575 5575 5576 5577 5578 5577 5578 5580 5581 5581 5581 5581 5582 5582 5582 5585 5587 5587 5587 5587 5588 5588 5589 5590 5589 5588 5588 5588 5588 5588 5588 5588 5587 5587 5587 5587 5587 5587 5586 5585 5584 5583 5583 5582
5628 5625 5623 5621 5619 5617 5615 5613 5611 5608 5606 5604 5602 5600 5598 5597 5595 5593 5591 5590 5589 5587 5586 5585 5584 5583 5582 5581 5580 5578 5577 5576 5574 5573 5572 5571 5570 5570 5570 5570 5571 5571 5571 5572 5572 5572 5573 5574 5574 5575 5576 5576 5576 5577 5578 5578 5578 5578 5579 5581 5582 5582 5582 5582 5582 5583 5584 5583 5583 5582 5583 5583 5583 5583 5582 5582 5582 5581 5581 5580 5579 5578 5578 5577 5576 5575 5574
5628 5626 5624 5622 5619 5617 5615 5613 5611 5609 5607 5605 5603 5601 5599 5598 5596 5594 5592 5591 5589 5588 5586 5585 5584 5583 5581 5580 5579 5578 5576 5575 5574 5572 5571 5570 5569 5568 5568 5568 5569 5568 5569 5569 5569 5569 5570 5570 5571 5572 5572 5572 5573 5573 5574 5574 5574 5574 5575 5576 5577 5577 5577 5577 5577 5577 5578 5578 5578 5577 5577 5578 5577 5577 5576 5576 5575 5574 5573 5572 5571 5571 5571 5570 5569 5568 5566
5628 5626 5624 5622 5620 5617 5615 5613 5611 5610 5608 5606 5604 5602 5600 5598 5596 5595 5593 5591 5589 5588 5586 5585 5584 5582 5581 5580 5579 5577 5576 5575 5574 5572 5571 5570 5569 5568 5567 5567 5567 5567 5567 5567 5567 5567 5567 5567 5568 5568 5568 5569 5569 5570 5570 5570 5570 5570 5571 5572 5573 5573 5573 5573 5572 5572 5573 5573 5572 5572 5571 5571 5570 5570 5570 5569 5569 5568 5567 5566 5565 5564 5563 5562 5561 5560 5558
5628 5626 5624 5622 5620 5618 5616 5613 5611 5610 5608 5606 5604 5602 5600 5599 5597 5595 5594 5592 5590 5588 5587 5585 5584 5582 5581 5579 5578 5577 5575 5574 5573 5572 5571 5570 5569 5568 5567 5567 5566 5566 5565 5565 5565 5565 5565 5565 5566 5566 5566 5566 5566 5566 5567 5567 5567 5567 5568 5568 5568 5569 5569 5569 5569 5568 5569 5568 5568 5567 5566 5565 5564 5564 5564 5564 5564 5563 5561 5559 5558 5557 5556 5555 5553 5552 5551
5627 5626 5624 5622 5620 5618 5616 5614 5612 5609 5608 5606 5604 5602 5600 5599 5597 5595 5593 5591 5590 5589 5587 5585 5584 5582 5581 5579 5578 5576 5575 5573 5572 5571 5570 5569 5568 5568 5567 5566 5565 5565 5564 5564 5564 5564 5564 5564 5564 5564 5564 5564 5564 5563 5564 5564 5564 5564 5564 5564 5565 5565 5564 5564 5564 5564 5564 5564 5563 5562 5561 5560 5559 5559 5558 5559 5558 5556 5555 5553 5552 5551 5550 5548 5547 5545 5544
5627 5625 5623 5622 5620 5618 5616 5614 5612 5610 5607 5606 5604 5602 5600 5599 5597 5594 5593 5591 5590 5588 5587 5585 5584 5582 5581 5579 5578 5576 5574 5573 5571 5570 5569 5568 5567 5567 5566 5566 5565 5564 5564 5563 5563 5563 5563 5563 5563 5562 5562 5562 5561 5561 5561 5561 5561 5561 5562 5562 5562 5561 5560 5560 5560 5560 5559 5559 5558 5557 5557 5556 5555 5554 5554 5553 5552 5550 5548 5547 5546 5545 5544 5542 5541 5539 5537
5626 5625 5623 5621 5619 5617 5616 5614 5612 5610 5608 5606 5603 5602 5600 5598 5596 5594 5593 5591 5590 5588 5586 5585 5583 5582 5580 5579 5577 5576 5574 5573 5571 5570 5569 5567 5566 5566 5565 5565 5564 5563 5563 5562 5562 5561 5561 5561 5561 5561 5560 5560 5559 5559 5559 5558 5558 5558 5559 5559 5559 5558 5557 5556 5555 5554 5554 5553 5553 5552 5551 5551 5550 5549 5549 5548 5546 5544 5543 5542 5540 5539 5537 5535 5534 5533 5531
5625 5624 5622 5620 5619 5617 5615 5613 5611 5610 5608 5606 5604 5602 5600 5598 5596 5594 5593 5591 5589 5588 5586 5584 5582 5580 5579 5578 5577 5575 5574 5572 5571 5569 5568 5567 5566 5565 5564 5563 5563 5562 5561 5561 5560 5560 5559 5559 5559 5559 5558 5557 5556 5556 5556 5555 5555 5555 5556 5556 5555 5554 5553 5552 5551 5550 5549 5549 5548 5547 5546 5545 5544 5543 5543 5542 5540 5539 5537 5536 5534 5533 5531 5530 5528 5526 5525
5625 5623 5621 5620 5618 5616 5614 5612 5611 5609 5607 5605 5603 5601 5599 5597 5596 5594 5592 5590 5588 5587 5585 5584 5582 5580 5578 5577 5576 5574 5573 5571 5570 5569 5567 5566 5565 5564 5563 5562 5561 5561 5560 5559 5559 5558 5557 5557 5557 5557 5556 5555 5554 5554 5553 5552 5552 5552 5552 5551 5550 5550 5549 5549 5547 5547 5546 5545 5543 5542 5541 5540 5539 5538 5537 5536 5534 5533 5532 5530 5529 5527 5526 5525 5523 5522 5521
5623 5622 5620 5618 5617 5615 5613 5611 5610 5608 5606 5604 5602 5600 5598 5596 5594 5593 5591 5589 5588 5586 5584 5582 5581 5579 5577 5576 5574 5573 5572 5570 5569 5568 5566 5565 5564 5563 5562 5561 5560 5559 5558 5558 5557 5556 5555 5555 5555 5554 5554 5553 5552 5551 5550 5550 5549 5549 5548 5547 5546 5545 5545 5544 5543 5542 5542 5541 5539 5538 5537 5535 5534 5533 5532 5531 5529 5528 5527 5526 5525 5524 5523 5521 5520 5519 5517
5622 5620 5619 5617 5615 5613 5612 5610 5608 5606 5605 5603 5601 5599 5597 5595 5593 5591 5590 5588 5587 5585 5583 5581 5579 5578 5576 5574 5573 5572 5570 5569 5568 5567 5565 5564 5563 5562 5560 5559 5558 5557 5556 5556 5555 5554 5553 5553 5552 5552 5551 5550 5549 5548 5548 5547 5546 5545 5545 5544 5543 5542 5541 5540 5539 5538 5538 5537 5535 5533 5532 5531 5530 5529 5528 5527 5526 5525 5524 5523 5522 5521 5520 5519 5517 5516 5514
5619 5618 5617 5615 5613 5611 5610 5608 5607 5605 5603 5601 5599 5597 5595 5593 5591 5590 5589 5587 5586 5584 5581 5579 5578 5576 5575 5573 5572 5571 5569 5568 5567 5566 5564 5563 5562 5560 5559 5558 5557 5555 5554 5554 5553 5552 5551 5550 5550 5549 5549 5548 5547 5546 5545 5544 5543 5543 5542 5541 5539 5538 5538 5536 5535 5534 5534 5532 5531 5529 5528 5527 5526 5525 5525 5524 5523 5523 5522 5521 5520 5519 5518 5516 5515 5513 5512
5617 5615 5614 5613 5612 5610 5608 5606 5605 5603 5601 5599 5598 5596 5594 5592 5591 5589 5588 5586 5584 5582 5580 5578 5576 5575 5573 5571 5570 5569 5568 5566 5565 5564 5562 5561 5560 5559 5558 5557 5555 5554 5553 5552 5551 5550 5549 5548 5547 5547 5546 5545 5545 5544 5542 5541 5540 5540 5539 5538 5536 5535 5534 5533 5531 5530 5530 5528 5527 5526 5525 5524 5523 5523 5522 5522 5521 5521 5520 5519 5518 5517 5516 5514 5513 5512 5510
5614 5612 5612 5611 5609 5607 5606 5604 5602 5601 5599 5597 5595 5593 5592 5591 5589 5588 5586 5584 5582 5580 5578 5577 5574 5573 5572 5570 5568 5567 5566 5564 5563 5562 5560 5559 5558 5557 5556 5555 5554 5552 5551 5550 5549 5548 5547 5546 5545 5544 5544 5543 5543 5542 5540 5539 5538 5537 5536 5535 5534 5532 5531 5530 5528 5527 5526 5525 5524 5523 5523 5522 5521 5521 5520 5520 5519 5519 5519 5518 5517 5516 5514 5513 5512 5510 5509
5611 5609 5609 5608 5606 5605 5603 5601 5599 5598 5596 5595 5593 5591 5589 5588 5587 5585 5584 5582 5580 5578 5576 5574 5573 5571 5570 5569 5567 5565 5564 5563 5561 5560 5559 5557 5556 5555 5554 5553 5552 5550 5549 5549 5548 5546 5545 5544 5543 5542 5541 5541 5540 5539 5538 5537 5536 5535 5534 5532 5531 5530 5529 5527 5526 5524 5523 5522 5521 5521 5521 5520 5519 5519 5518 5518 5518 5518 5517 5517 5516 5514 5513 5512 5511 5510 5508
5607 5606 5605 5604 5603 5602 5600 5598 5596 5595 5594 5592 5590 5588 5587 5585 5584 5583 5581 5580 5578 5576 5574 5572 5571 5569 5568 5567 5565 5564 5562 5561 5560 5558 5557 5555 5554 5552 5552 5551 5550 5548 5547 5546 5545 5544 5543 5542 5541 5540 5539 5538 5537 5537 5535 5534 5533 5532 5531 5530 5529 5528 5526 5525 5523 5522 5520 5519 5519 5519 5519 5518 5517 5517 5517 5516 5516 5517 5516 5516 5514 5513 5512 5511 5510 5509 5507
5604 5603 5602 5601 5600 5598 5597 5595 5593 5592 5590 5589 5587 5585 5583 5581 5580 5579 5578 5577 5576 5574 5572 5571 5570 5568 5566 5565 5564 5562 5560 5559 5558 5556 5555 5554 5552 5550 5549 5548 5548 5546 5545 5544 5543 5541 5540 5539 5539 5538 5537 5536 5535 5534 5533 5532 5531 5530 5528 5527 5526 5525 5524 5522 5521 5519 5518 5517 5517 5517 5517 5516 5516 5515 5515 5515 5515 5515 5515 5514 5513 5512 5511 5511 5510 5508 5507
5601 5600 5599 5598 5596 5595 5593 5592 5590 5588 5586 5585 5583 5581 5579 5578 5577 5576 5575 5574 5573 5571 5570 5569 5568 5566 5564 5563 5562 5560 5558 5557 5555 5554 5553 5552 5550 5548 5547 5546 5545 5543 5542 5542 5541 5539 5538 5537 5536 5535 5534 5533 5533 5532 5531 5530 5529 5528 5526 5524 5523 5523 5521 5520 5519 5517 5516 5516 5515 5515 5515 5515 5514 5514 5514 5514 5514 5514 5514 5513 5512 5512 5511 5510 5509 5508 5507
5598 5597 5595 5594 5592 5591 5589 5588 5586 5585 5583 5581 5579 5577 5575 5574 5573 5572 5571 5570 5569 5568 5567 5566 5565 5563 5562 5560 5559 5558 5556 5554 5553 5551 5550 5549 5548 5546 5544 5543 5542 5541 5539 5539 5538 5537 5536 5535 5533 5533 5532 5531 5530 5529 5528 5527 5526 5525 5523 5522 5521 5520 5519 5518 5516 5515 5514 5514 5514 5514 5514 5513 5513 5513 5513 5513 5513 5513 5512 5512 5511 5511 5510 5509 5509 5508 5507
5594 5593 5591 5590 5588 5587 5585 5583 5582 5581 5579 5577 5575 5574 5572 5571 5569 5568 5567 5567 5566 5565 5564 5562 5561 5560 5558 5557 5556 5555 5554 5552 5550 5549 5548 5547 5545 5544 5543 5541 5539 5538 5537 5536 5535 5534 5533 5532 5531 5530 5529 5528 5527 5526 5525 5524 5523 5522 5521 5520 5519 5518 5517 5516 5514 5513 5512 5512 5512 5513 5512 5512 5512 5512 5511 5511 5511 5511 5511 5511 5511 5510 5509 5509 5509 5508 5507
5590 5589 5587 5586 5584 5583 5581 5580 5579 5577 5575 5573 5572 5570 5568 5567 5566 5565 5564 5563 5562 5561 5561 5560 5558 5556 5555 5554 5552 5551 5550 5549 5547 5546 5545 5544 5543 5542 5540 5539 5537 5536 5534 5533 5532 5531 5530 5529 5529 5528 5526 5525 5524 5523 5522 5521 5521 5520 5518 5517 5516 5516 5515 5514 5512 5511 5511 5510 5511 5511 5511 5511 5511 5511 5510 5510 5510 5510 5510 5510 5510 5509 5508 5508 5508 5507 5507
5587 5585 5584 5582 5581 5579 5577 5576 5575 5573 5571 5569 5568 5566 5565 5564 5562 5561 5560 5560 5559 5558 5557 5556 5554 5552 5551 5550 5549 5548 5547 5546 5544 5543 5542 5541 5540 5539 5537 5536 5535 5533 5532 5531 5529 5528 5527 5526 5526 5525 5524 5523 5522 5520 5519 5518 5518 5517 5516 5515 5514 5513 5512 5511 5510 5509 5509 5509 5509 5510 5510 5510 5510 5510 5509 5509 5509 5509 5509 5509 5509 5508 5508 5508 5507 5507 5506
5583 5581 5580 5578 5576 5575 5574 5572 5571 5569 5567 5565 5564 5563 5562 5561 5559 5558 5557 5556 5555 5555 5553 5552 5550 5548 5547 5545 5545 5544 5543 5542 5541 5540 5538 5538 5537 5535 5534 5533 5532 5530 5529 5528 5527 5526 5524 5524 5523 5522 5521 5520 5519 5518 5517 5516 5515 5514 5513 5512 5511 5510 5510 5509 5508 5507 5507 5507 5507 5508 5508 5508 5508 5508 5508 5508 5508 5508 5508 5508 5508 5508 5507 5507 5507 5506 5506
5578 5577 5576 5574 5572 5571 5570 5568 5567 5565 5563 5561 5560 5559 5558 5557 5556 5555 5553 5552 5552 5551 5550 5548 5546 5545 5543 5541 5540 5540 5539 5538 5537 5536 5535 5534 5533 5532 5531 5530 5529 5527 5526 5525 5524 5523 5522 5521 5520 5519 5518 5517 5516 5515 5514 5513 5512 5511 5511 5510 5509 5508 5507 5507 5506 5505 5505 5505 5506 5506 5507 5507 5507 5507 5507 5507 5507 5507 5507 5507 5507 5507 5507 5507 5506 5506 5506
5574 5573 5572 5570 5568 5567 5566 5564 5562 5561 5559 5558 5556 5556 5555 5554 5553 5551 5550 5549 5548 5547 5546 5544 5543 5541 5540 5538 5537 5536 5535 5534 5533 5533 5532 5530 5529 5529 5528 5527 5526 5524 5522 5521 5520 5519 5519 5518 5517 5516 5515 5514 5513 5512 5511 5510 5510 5509 5508 5508 5507 5506 5505 5505 5504 5503 5503 5503 5504 5504 5505 5505 5506 5506 5506 5506 5506 5506 5506 5506 5506 5507 5507 5507 5506 5506 5506
5570 5569 5568 5566 5564 5563 5562 5560 5558 5557 5556 5554 5553 5552 5551 5551 5549 5548 5547 5546 5545 5543 5542 5541 5539 5538 5537 5535 5534 5533 5532 5530 5529 5529 5528 5527 5525 5524 5524 5524 5522 5520 5519 5518 5517 5516 5515 5514 5514 5513 5512 5511 5510 5509 5508 5507 5507 5506 5505 5505 5505 5504 5503 5502 5502 5501 5501 5501 5502 5502 5503 5503 5504 5504 5505 5505 5505 5505 5505 5506 5506 5506 5506 5506 5506 5506 5506
5566 5565 5564 5562 5561 5559 5558 5557 5555 5553 5552 5551 5550 5549 5548 5547 5546 5544 5543 5542 5541 5540 5539 5538 5536 5534 5533 5532 5531 5530 5529 5527 5526 5525 5524 5523 5521 5520 5520 5520 5519 5517 5515 5514 5513 5512 5511 5511 5510 5509 5509 5508 5507 5506 5505 5504 5504 5503 5503 5502 5502 5501 5501 5500 5499 5499 5499 5499 5499 5500 5501 5501 5502 5503 5503 5503 5504 5504 5504 5505 5505 5505 5505 5506 5506 5506 5506
5562 5561 5559 5558 5556 5555 5554 5553 5551 5550 5548 5547 5546 5545 5544 5543 5542 5541 5540 5539 5538 5537 5536 5534 5533 5531 5530 5529 5528 5526 5525 5524 5522 5521 5520 5519 5517 5516 5516 5516 5515 5513 5512 5511 5509 5508 5507 5507 5507 5506 5506 5505 5504 5503 5501 5501 5501 5501 5500 5499 5499 5499 5498 5498 5497 5497 5497 5496 5497 5498 5499 5499 5500 5501 5501 5502 5502 5503 5503 5503 5504 5504 5504 5505 5505 5505 5505
5558 5556 5555 5554 5552 5551 5550 5549 5548 5546 5545 5544 5542 5541 5541 5540 5539 5538 5537 5535 5534 5533 5532 5530 5529 5528 5527 5525 5524 5523 5521 5520 5519 5518 5516 5515 5513 5512 5511 5511 5510 5509 5508 5508 5506 5505 5503 5503 5503 5503 5502 5502 5501 5499 5498 5498 5497 5497 5496 5496 5496 5496 5496 5495 5495 5494 5494 5494 5494 5495 5496 5497 5498 5498 5499 5500 5500 5501 5501 5502 5502 5503 5503 5503 5504 5504 5505
5553 5552 5551 5550 5548 5547 5546 5546 5544 5543 5542 5541 5539 5538 5537 5536 5535 5534 5533 5532 5530 5529 5528 5527 5526 5524 5523 5521 5520 5519 5517 5516 5515 5514 5513 5511 5509 5508 5507 5506 5506 5505 5504 5504 5503 5502 5500 5499 5498 5498 5498 5498 5497 5496 5496 5495 5495 5494 5493 5493 5493 5493 5493 5492 5492 5492 5491 5491 5492 5492 5493 5494 5495 5496 5497 5497 5498 5499 5499 5500 5501 5501 5502 5502 5503 5503 5503